Location: Unspecified
(50.7693°N, 0.0000°E)
Time: 08:27:54
(UTC+00:00)

Transit 4A - Pass Details

Date: 28 June 2019
Orbit: 862 x 982 km, 66.8° (Epoch: 16 July)

Event Time Altitude Azimuth Distance (km) Brightness Sun altitude
Rises 13:35:21 0° 320° (NW) 3,698 11.0 57.2°
Reaches altitude 10° 13:38:11 10° 329° (NNW) 2,744 10.4 56.9°
Maximum altitude 13:44:05 36° 35° (NE) 1,491 9.1 56.3°
Drops below altitude 10° 13:49:51 10° 101° (E) 2,691 10.2 55.6°
Sets 13:52:36 0° 110° (ESE) 3,617 10.8 55.3°
